Location: LDNL
(36.4545°S, 141.6685°E)
Time: 10:05:02
(UTC+11:00)

Courier 1B - Pass Details

Date: 06 February 2023
Orbit: 962 x 1209 km, 28.3° (Epoch: 21 March)

Event Time Altitude Azimuth Distance (km) Brightness Sun altitude
Exits shadow 03:25:01 24° 57° (ENE) 2,271 9.3 -32.8°
Drops below altitude 10° 03:28:00 10° 68° (ENE) 3,151 10.2 -32.5°
Sets 03:30:59 0° 74° (ENE) 4,116 10.9 -32.2°
